Date String (YYYY-MM-DD hh:mm:ss) UTC,Instrument flags,absolute air pressure of the measurement (hPa),sample flow rate (lpm),inlet stack bypass flow (lpm),air temperature of the measurement (°C),ambient temperature measured by the external sensor (°C),aerosol sample conditioner tube jacket temperature (°C),OPC LED temperature (°C),internal box temperature (°C),relative humidity of the measurement (%),span deviation,mass concentration of particles derived from Lorenz-Mie calculation of OPC scattering (μg/m³),mass concentration of particles derived from Lorenz-Mie calculation of OPC scattering (μg/m³),mass concentration of particles derived from Lorenz-Mie calculation of OPC scattering (μg/m³)
DateTimeUTC,F1_M11,P_M11,Q1_M11,Q2_M11,T1_M11,T2_M11,T3_M11,T4_M11,T5_M11,U1_M11,ZSPAN_M11,X0_M11,X2_M11,X1_M11
2023-12-13 04:00:00,SystemResetWarning,0836.8,5.01,000.00,019.4,018.5,000.0,027.7,020.7,21.6,0000.8,0015.68,0009.37,0008.41
2023-12-13 04:01:00,SystemResetWarning,0836.8,5.01,000.00,019.4,018.5,000.0,027.7,020.7,21.6,0000.6,0015.74,0009.43,0008.48
2023-12-13 04:02:00,SystemResetWarning,0836.8,5.00,000.00,019.4,018.5,000.0,027.7,020.7,21.6,0000.2,0015.76,0009.50,0008.53
2023-12-13 04:03:00,SystemResetWarning,0836.8,5.00,000.00,019.4,018.5,000.0,027.7,020.7,21.6,0000.0,0015.89,0009.57,0008.58
2023-12-13 04:04:00,SystemResetWarning,0836.8,4.99,000.00,019.4,018.5,000.0,027.7,020.7,21.6,0000.0,0016.05,0009.64,0008.63
2023-12-13 04:05:00,SystemResetWarning,0836.8,5.01,000.00,019.4,018.5,000.0,027.7,020.7,21.6,0000.0,0016.42,0009.76,0008.70
2023-12-13 04:06:00,SystemResetWarning,0836.7,5.01,000.00,019.4,018.5,000.0,027.7,020.7,21.6,0000.0,0017.14,0009.89,0008.77
2023-12-13 04:07:00,SystemResetWarning,0836.8,5.00,000.00,019.4,018.5,000.0,027.7,020.7,21.6,0000.0,0017.89,0010.02,0008.85
2023-12-13 04:08:00,SystemResetWarning,0836.8,4.99,000.00,019.4,018.5,000.0,027.7,020.7,21.6,-000.0,0017.81,0010.11,0008.93
2023-12-13 04:09:00,SystemResetWarning,0836.8,5.00,000.00,019.4,018.5,000.0,027.7,020.7,21.6,-000.1,0016.95,0010.14,0009.00
2023-12-13 04:10:00,SystemResetWarning,0836.8,4.99,000.00,019.4,018.5,000.0,027.7,020.7,21.6,-000.0,0016.24,0010.18,0009.04
2023-12-13 04:11:00,SystemResetWarning,0836.8,5.00,000.00,019.4,018.5,000.0,027.7,020.7,21.6,0000.2,0016.43,0010.28,0009.11
2023-12-13 04:12:00,SystemResetWarning,0836.8,5.00,000.00,019.4,018.5,000.0,027.7,020.7,21.6,0000.5,0016.56,0010.34,0009.13
2023-12-13 04:13:00,SystemResetWarning,0836.8,5.00,000.00,019.4,018.5,000.0,027.7,020.7,21.6,0000.5,0016.94,0010.42,0009.17
2023-12-13 04:14:00,SystemResetWarning,0836.9,5.01,000.00,019.4,018.5,000.0,027.7,020.6,21.6,0000.8,0017.55,0010.54,0009.22
2023-12-13 04:15:00,SystemResetWarning,0836.8,5.00,000.00,019.4,018.5,000.0,027.7,020.7,21.6,0000.7,0017.98,0010.63,0009.24
2023-12-13 04:16:00,SystemResetWarning,0836.8,4.99,000.00,019.4,018.5,000.0,027.7,020.7,21.6,0001.0,0017.78,0010.66,0009.27
2023-12-13 04:17:00,SystemResetWarning,0836.8,5.00,000.00,019.4,018.5,000.0,027.7,020.6,21.6,0000.6,0017.50,0010.69,0009.28
2023-12-13 04:18:00,SystemResetWarning,0836.8,5.00,000.00,019.4,018.5,000.0,027.7,020.7,21.6,0000.7,0017.28,0010.73,0009.28
2023-12-13 04:19:00,SystemResetWarning,0836.8,5.00,000.00,019.4,018.5,000.0,027.7,020.7,21.6,0001.2,0017.58,0010.79,0009.29
2023-12-13 04:20:00,SystemResetWarning,0836.9,5.00,000.00,019.4,018.5,000.0,027.7,020.6,21.6,0001.2,0017.82,0010.84,0009.30
2023-12-13 04:21:00,SystemResetWarning,0836.9,5.00,000.00,019.4,018.5,000.0,027.7,020.6,21.7,0001.3,0018.16,0010.85,0009.31
2023-12-13 04:22:00,SystemResetWarning,0836.8,5.00,000.00,019.4,018.5,000.0,027.7,020.6,21.7,0000.6,0018.34,0010.85,0009.31
2023-12-13 04:23:00,SystemResetWarning,0836.8,5.01,000.00,019.4,018.5,000.0,027.7,020.7,21.7,0000.2,0019.27,0010.85,0009.33
2023-12-13 04:24:00,SystemResetWarning,0836.8,5.01,000.00,019.4,018.5,000.0,027.7,020.7,21.7,0000.0,0019.36,0010.82,0009.32
2023-12-13 04:25:00,SystemResetWarning,0836.8,5.00,000.00,019.4,018.5,000.0,027.7,020.6,21.7,0000.0,0019.54,0010.77,0009.31
2023-12-13 04:26:00,SystemResetWarning,0836.8,5.01,000.00,019.4,018.5,000.0,027.7,020.6,21.7,0000.0,0019.47,0010.74,0009.31
2023-12-13 04:27:00,SystemResetWarning,0836.8,5.00,000.00,019.4,018.4,000.0,027.7,020.7,21.7,-000.4,0019.93,0010.72,0009.31
2023-12-13 04:28:00,SystemResetWarning,0836.8,5.00,000.00,019.4,018.4,000.0,027.7,020.7,21.7,-000.3,0019.86,0010.67,0009.33
2023-12-13 04:29:00,SystemResetWarning,0836.8,5.00,000.00,019.4,018.4,000.0,027.7,020.6,21.7,0000.0,0020.25,0010.63,0009.34
2023-12-13 04:30:00,SystemResetWarning,0836.9,5.00,000.00,019.4,018.4,000.0,027.7,020.6,21.7,0000.0,0020.51,0010.60,0009.35
2023-12-13 04:31:00,SystemResetWarning,0836.9,5.00,000.00,019.4,018.4,000.0,027.7,020.6,21.7,-000.1,0020.99,0010.58,0009.34
2023-12-13 04:32:00,SystemResetWarning,0836.9,4.99,000.00,019.4,018.4,000.0,027.7,020.6,21.7,-000.4,0020.86,0010.55,0009.30
2023-12-13 04:33:00,SystemResetWarning,0836.9,5.00,000.00,019.4,018.4,000.0,027.7,020.6,21.7,-000.2,0020.57,0010.48,0009.25
2023-12-13 04:34:00,SystemResetWarning,0837.0,4.99,000.00,019.4,018.4,000.0,027.7,020.6,21.7,-000.1,0019.45,0010.41,0009.21
2023-12-13 04:35:00,SystemResetWarning,0837.0,4.99,000.00,019.4,018.4,000.0,027.7,020.6,21.7,0000.6,0019.15,0010.40,0009.17
2023-12-13 04:36:00,SystemResetWarning,0837.0,5.00,000.00,019.4,018.4,000.0,027.7,020.6,21.7,0000.4,0019.60,0010.37,0009.13
2023-12-13 04:37:00,SystemResetWarning,0837.0,5.00,000.00,019.3,018.4,000.0,027.7,020.6,21.7,0000.7,0019.81,0010.32,0009.11
2023-12-13 04:38:00,SystemResetWarning,0837.0,5.00,000.00,019.3,018.4,000.0,027.7,020.6,21.8,0001.0,0019.78,0010.29,0009.07
2023-12-13 04:39:00,SystemResetWarning,0837.0,5.01,000.00,019.3,018.4,000.0,027.6,020.6,21.8,0000.8,0019.64,0010.27,0009.02
2023-12-13 04:40:00,SystemResetWarning,0837.0,5.01,000.00,019.3,018.4,000.0,027.6,020.6,21.8,0000.1,0019.00,0010.22,0008.99
2023-12-13 04:41:00,SystemResetWarning,0837.0,5.00,000.00,019.3,018.4,000.0,027.6,020.6,21.8,0000.0,0018.41,0010.19,0008.95
2023-12-13 04:42:00,SystemResetWarning,0836.9,5.00,000.00,019.3,018.4,000.0,027.6,020.6,21.8,0000.1,0018.29,0010.15,0008.92
2023-12-13 04:43:00,SystemResetWarning,0836.9,5.00,000.00,019.3,018.4,000.0,027.6,020.6,21.8,0000.5,0018.07,0010.10,0008.93
2023-12-13 04:44:00,SystemResetWarning,0837.0,5.00,000.00,019.3,018.4,000.0,027.6,020.6,21.8,0000.6,0017.82,0010.09,0008.93
2023-12-13 04:45:00,SystemResetWarning,0837.0,5.00,000.00,019.3,018.4,000.0,027.6,020.5,21.9,0000.7,0017.95,0010.11,0008.94
2023-12-13 04:46:00,SystemResetWarning,0837.0,5.00,000.00,019.3,018.4,000.0,027.6,020.6,21.9,0000.1,0018.41,0010.11,0008.94
2023-12-13 04:47:00,SystemResetWarning,0837.0,5.00,000.00,019.3,018.4,000.0,027.6,020.6,21.9,0000.3,0018.32,0010.11,0008.96
2023-12-13 04:48:00,SystemResetWarning,0837.0,4.99,000.00,019.3,018.4,000.0,027.6,020.6,21.9,0000.2,0017.77,0010.08,0008.96
2023-12-13 04:49:00,SystemResetWarning,0836.9,5.00,000.00,019.3,018.4,000.0,027.6,020.6,21.9,-000.3,0017.33,0010.08,0008.96
2023-12-13 04:50:00,SystemResetWarning,0837.0,4.99,000.00,019.3,018.4,000.0,027.6,020.6,21.9,0000.0,0017.92,0010.08,0008.96
2023-12-13 04:51:00,SystemResetWarning,0837.0,5.00,000.00,019.3,018.4,000.0,027.6,020.6,21.9,-000.1,0019.20,0010.08,0008.95
2023-12-13 04:52:00,SystemResetWarning,0837.0,5.00,000.00,019.3,018.4,000.0,027.6,020.6,21.9,0000.1,0019.74,0010.10,0008.96
2023-12-13 04:53:00,SystemResetWarning,0837.0,5.00,000.00,019.3,018.4,000.0,027.6,020.6,21.9,0000.3,0019.40,0010.09,0008.96
2023-12-13 04:54:00,SystemResetWarning,0837.0,5.00,000.00,019.3,018.4,000.0,027.6,020.6,21.9,0000.5,0019.30,0010.14,0008.96
2023-12-13 04:55:00,SystemResetWarning,0837.0,5.01,000.00,019.3,018.4,000.0,027.6,020.6,21.9,0000.4,0019.08,0010.17,0008.97
2023-12-13 04:56:00,SystemResetWarning,0837.0,5.00,000.00,019.3,018.4,000.0,027.6,020.6,21.9,0000.1,0019.12,0010.19,0008.99
2023-12-13 04:57:00,SystemResetWarning,0837.0,5.01,000.00,019.3,018.4,000.0,027.6,020.6,21.9,0000.3,0018.91,0010.22,0009.01
2023-12-13 04:58:00,SystemResetWarning,0837.0,5.00,000.00,019.3,018.4,000.0,027.6,020.6,21.9,0000.4,0018.24,0010.20,0009.01
2023-12-13 04:59:00,SystemResetWarning,0837.0,4.99,000.00,019.3,018.4,000.0,027.6,020.6,21.9,0000.4,0017.67,0010.22,0009.01
